アサシン彗星

C/2017 O1 ( ASASSN )

English version
Home page
Updated on November 7, 2017

---------------------------------------------------------------------

・ プロフィール

発見日 2017年7月19日
発見光度 15.3等
発見者 All-Sky Automated Survey for Supernovae (ASASSN)

・ 写真集

・ 軌道要素

Epoch 2017 Oct. 14.0 TT = JDT 2458040.5
T 2017 Oct. 14.78473 TT                                 MPCW
q   1.4987116            (2000.0)            P               Q
z  +0.0022998      Peri.   20.90767     +0.72167902     -0.63351912
 +/-0.0000088      Node    25.81025     +0.50849600     +0.21170698
e   0.9965532      Incl.   39.84913     +0.46969268     +0.74420003
From 1527 observations 2017 July 19-Sept. 30, mean residual 0".5.

・ 星図

・ 光度変化

        m1 = 7.0 + 5 logΔ + 10.0 log r(t + 45)

---------------------------------------------------------------------

軌道要素はM.P.E.C. 2017-T14に掲載されたものです。
星図はステラナビゲータ Ver.10 (アストロアーツ) で作成したものです。
光度グラフはComet for Windowsで作成したものです。

---------------------------------------------------------------------

Copyright(C) Seiichi Yoshida (comet@aerith.net). All rights reserved.